Weather History for LIEB - November, 2012

Change the Weather History Date:

Sunday, November 4, 2012

  Actual Average Record
Temperature  
Mean Temperature 68 °F -  
Max Temperature 75 °F 63 °F - ()
Min Temperature 60 °F 52 °F - ()
Cooling Degree Days 2    
Growing Degree Days 18 (Base 50)    
Moisture  
Dew Point 63 °F    
Average Humidity 77    
Maximum Humidity 94    
Minimum Humidity 63    
Precipitation  
Precipitation 0.00 in 0.08 in - ()
Sea Level Pressure  
Sea Level Pressure 29.83 in    
Wind  
Wind Speed 14 mph ()    
Max Wind Speed 23 mph    
Max Gust Speed 34 mph    
Visibility 6.8 miles    
Events      
T = Trace of Precipitation, MM = Missing Value Source: Averaged Metar Reports

Daily Weather History Graph

Daily Weather History Graph

Search for Another Location

Airport or City:

Trip Planner

Search our weather history database for the weather conditions in past years. The results will help you decide how hot, cold, wet, or windy it might be!

Date:

Astronomy

Nov. 04, 2012 Rise Set
Actual Time 6:53 AM CET 5:15 PM CET
Civil Twilight 6:25 AM CET 5:43 PM CET
Nautical Twilight 5:53 AM CET 6:15 PM CET
Astronomical Twilight 5:21 AM CET 6:47 PM CET
Moon 9:37 PM CET 11:26 AM CET
Length of Visible Light 11h 17m
Length of Day
10h 21m
Waning Gibbous, 74% of the Moon is Illuminated
Nov 4
Waning Gibbous
Nov 7
Last Quarter
Nov 13
New
Nov 20
First Quarter
Nov 28
Full

Hourly Weather History & Observations

Time (CET) Temp. Heat Index Dew Point Humidity Pressure Visibility Wind Dir Wind Speed Gust Speed Precip Events Conditions
12:55 AM 62.6 °F - 60.8 °F 94% 29.92 in 6.2 mi WNW 10.4 mph - N/A   Partly Cloudy
1:00 AM 63 °F - 61 °F 89% 29.93 in 12 mi WNW 10.4 mph - -   Scattered Clouds
1:55 AM 62.6 °F - 59.0 °F 88% 29.92 in 6.2 mi SW 9.2 mph - N/A   Partly Cloudy
2:55 AM 62.6 °F - 57.2 °F 82% 29.89 in 6.2 mi SW 10.4 mph - N/A   Partly Cloudy
3:55 AM 64.4 °F - 59.0 °F 83% 29.86 in 6.2 mi SW 15.0 mph - N/A   Partly Cloudy
4:55 AM 64.4 °F - 60.8 °F 88% 29.86 in 6.2 mi SW 15.0 mph - N/A   Partly Cloudy
5:55 AM 64.4 °F - 60.8 °F 88% 29.86 in 6.2 mi SSW 16.1 mph - N/A   Partly Cloudy
6:55 AM 64.4 °F - 60.8 °F 88% 29.86 in 6.2 mi SSW 17.3 mph - N/A   Scattered Clouds
7:00 AM 64 °F - 61 °F 88% 29.87 in 12 mi SSW 17.3 mph - -   Partly Cloudy
7:55 AM 66.2 °F - 62.6 °F 88% 29.86 in 6.2 mi SSW 18.4 mph - N/A   Scattered Clouds
8:55 AM 68.0 °F - 60.8 °F 78% 29.86 in 6.2 mi SW 19.6 mph - N/A   Scattered Clouds
9:55 AM 78.8 °F - 69.8 °F 74% 29.86 in 6.2 mi West 13.8 mph - N/A   Partly Cloudy
10:55 AM 75.2 °F - 71.6 °F 89% 29.86 in 6.2 mi SW 18.4 mph 31.1 mph N/A   Scattered Clouds
11:55 AM 80.6 °F 83.9 °F 69.8 °F 70% 29.83 in 6.2 mi SW 18.4 mph - N/A   Scattered Clouds
12:55 PM 80.6 °F 83.9 °F 69.8 °F 70% 29.80 in 6.2 mi SW 19.6 mph - N/A   Scattered Clouds
1:00 PM 71 °F - 63 °F 69% 29.81 in 12 mi SW 19.6 mph - -   Partly Cloudy
1:55 PM 71.6 °F - 62.6 °F 73% 29.80 in 6.2 mi SSW 17.3 mph - N/A   Scattered Clouds
2:55 PM 69.8 °F - 62.6 °F 78% 29.80 in 6.2 mi South 16.1 mph - N/A   Scattered Clouds
3:55 PM 73.4 °F - 62.6 °F 69% 29.80 in 6.2 mi SW 17.3 mph - N/A   Scattered Clouds
4:55 PM 73.4 °F - 62.6 °F 69% 29.80 in 6.2 mi WSW 11.5 mph - N/A   Scattered Clouds
5:55 PM 73.4 °F - 62.6 °F 69% 29.80 in 6.2 mi WSW 13.8 mph - N/A   Scattered Clouds
6:55 PM 71.6 °F - 62.6 °F 73% 29.80 in 6.2 mi West 17.3 mph 29.9 mph N/A   Scattered Clouds
7:00 PM 72 °F - 62 °F 63% 29.80 in 6 mi West 17.3 mph - -   Partly Cloudy
7:55 PM 71.6 °F - 62.6 °F 73% 29.80 in 6.2 mi SW 19.6 mph 31.1 mph N/A   Scattered Clouds
8:55 PM 71.6 °F - 60.8 °F 69% 29.80 in 6.2 mi WSW 19.6 mph 31.1 mph N/A   Scattered Clouds
9:55 PM 71.6 °F - 60.8 °F 69% 29.77 in 6.2 mi WSW 21.9 mph 34.5 mph N/A   Scattered Clouds
10:55 PM 71.6 °F - 60.8 °F 69% 29.77 in 6.2 mi WSW 23.0 mph - N/A   Scattered Clouds
11:55 PM 73.4 °F - 60.8 °F 65% 29.74 in 6.2 mi SW 20.7 mph - N/A   Scattered Clouds